Weather History for Lancaster, PA

Change the Weather History Date:

Saturday, December 1, 2012

  Actual Average Record
Temperature  
Mean Temperature 40 °F -  
Max Temperature 46 °F 46 °F 71 °F (2006)
Min Temperature 35 °F 30 °F 14 °F (1976)
Degree Days  
Heating Degree Days 24    
Moisture  
Dew Point 35 °F    
Average Humidity 86    
Maximum Humidity 93    
Minimum Humidity 74    
Precipitation  
Precipitation 0.00 in - - ()
Sea Level Pressure  
Sea Level Pressure 30.41 in    
Wind  
Wind Speed 6 mph (ENE)    
Max Wind Speed 9 mph    
Max Gust Speed -    
Visibility 4 miles    
Events      
Averages and records for this station are not official NWS values.
T = Trace of Precipitation, MM = Missing Value Source: NWS Daily Summary

Daily Weather History Graph

Daily Weather History Graph

Search for Another Location

Airport:

Trip Planner

Search our weather history database for the weather conditions in past years. The results will help you decide how hot, cold, wet, or windy it might be!

Date:

Astronomy

Dec. 01, 2012 Rise Set
Actual Time 7:08 AM EST 4:40 PM EST
Civil Twilight 6:38 AM EST 5:10 PM EST
Nautical Twilight 6:04 AM EST 5:43 PM EST
Astronomical Twilight 5:32 AM EST 6:16 PM EST
Moon 7:28 PM EST (12/1) 9:20 AM EST (12/1)
Length of Visible Light 10h 31m
Length of Day
9h 31m
Waning Gibbous, 92% of the Moon is Illuminated
Dec 1
Waning Gibbous
Dec 6
Last Quarter
Dec 13
New
Dec 20
First Quarter
Dec 28
Full

Hourly Weather History & Observations

Time (EST) Temp. Windchill Dew Point Humidity Pressure Visibility Wind Dir Wind Speed Gust Speed Precip Events Conditions
12:53 AM 36.0 °F 32.1 °F 30.9 °F 82% 30.40 in 6.0 mi NNE 4.6 mph - N/A   Haze
1:53 AM 37.0 °F 31.0 °F 33.1 °F 86% 30.39 in 5.0 mi ENE 8.1 mph - N/A   Partly Cloudy
2:30 AM 37.4 °F 30.8 °F 33.8 °F 87% 30.36 in 4.0 mi East 9.2 mph - N/A   Overcast
2:53 AM 37.9 °F 32.1 °F 34.0 °F 86% 30.38 in 4.0 mi ENE 8.1 mph - N/A   Overcast
3:36 AM 37.4 °F 33.8 °F 33.8 °F 87% 30.37 in 4.0 mi NNE 4.6 mph - N/A   Scattered Clouds
3:53 AM 35.1 °F 30.1 °F 32.0 °F 89% 30.38 in 4.0 mi NNE 5.8 mph - N/A   Partly Cloudy
4:12 AM 35.6 °F 30.7 °F 32.0 °F 87% 30.38 in 5.0 mi NE 5.8 mph - N/A   Mostly Cloudy
4:53 AM 36.0 °F 32.1 °F 33.1 °F 89% 30.40 in 5.0 mi NE 4.6 mph - N/A   Mostly Cloudy
5:53 AM 36.0 °F 29.6 °F 32.0 °F 86% 30.40 in 7.0 mi ENE 8.1 mph - N/A   Overcast
6:12 AM 37.4 °F 32.8 °F 33.8 °F 87% 30.40 in 6.0 mi ENE 5.8 mph - N/A   Overcast
6:35 AM 37.4 °F 32.8 °F 33.8 °F 87% 30.41 in 6.0 mi ENE 5.8 mph - N/A   Overcast
6:53 AM 37.0 °F 31.0 °F 33.1 °F 86% 30.43 in 6.0 mi East 8.1 mph - N/A   Overcast
7:17 AM 37.4 °F 32.1 °F 33.8 °F 87% 30.42 in 6.0 mi East 6.9 mph - N/A   Overcast
7:53 AM 37.0 °F 32.4 °F 33.1 °F 86% 30.46 in 4.0 mi North 5.8 mph - N/A   Overcast
8:53 AM 37.9 °F 34.4 °F 33.1 °F 83% 30.47 in 4.0 mi NE 4.6 mph - N/A   Haze
9:53 AM 37.9 °F 33.5 °F 33.1 °F 83% 30.47 in 4.0 mi ENE 5.8 mph - N/A   Haze
10:53 AM 39.9 °F 35.1 °F 34.0 °F 79% 30.46 in 4.0 mi NE 6.9 mph - N/A   Haze
11:53 AM 42.1 °F 38.4 °F 36.0 °F 79% 30.44 in 4.0 mi East 5.8 mph - N/A   Haze
12:53 PM 43.0 °F 41.3 °F 37.0 °F 80% 30.41 in 3.0 mi NE 3.5 mph - N/A   Haze
1:49 PM 44.6 °F 42.2 °F 37.4 °F 76% 30.39 in 4.0 mi East 4.6 mph - N/A   Haze
1:53 PM 44.1 °F 41.5 °F 37.9 °F 79% 30.40 in 4.0 mi ENE 4.6 mph - N/A   Haze
2:53 PM 46.9 °F - 39.0 °F 74% 30.39 in 5.0 mi ENE 4.6 mph - N/A   Haze
3:53 PM 43.0 °F 38.8 °F 37.0 °F 80% 30.40 in 5.0 mi NNE 6.9 mph - N/A   Haze
4:53 PM 39.9 °F 34.5 °F 35.1 °F 83% 30.41 in 4.0 mi NNE 8.1 mph - N/A   Haze
5:00 PM 39.2 °F 33.0 °F 35.6 °F 87% 30.40 in 5.0 mi NE 9.2 mph - N/A   Haze
5:53 PM 37.9 °F 32.1 °F 34.0 °F 86% 30.42 in 5.0 mi NE 8.1 mph - N/A   Overcast
6:24 PM 37.4 °F 30.8 °F 35.6 °F 93% 30.42 in 5.0 mi NE 9.2 mph - N/A   Overcast
6:33 PM 39.2 °F 33.6 °F 35.6 °F 87% 30.41 in 4.0 mi NE 8.1 mph - N/A   Overcast
6:53 PM 39.0 °F 34.0 °F 35.1 °F 86% 30.43 in 4.0 mi ENE 6.9 mph - N/A   Overcast
7:53 PM 39.0 °F 36.8 °F 36.0 °F 89% 30.43 in 3.0 mi East 3.5 mph - N/A   Overcast
8:35 PM 41.0 °F 37.1 °F 37.4 °F 87% 30.42 in 2.5 mi East 5.8 mph - N/A   Overcast
8:53 PM 41.0 °F 38.0 °F 37.9 °F 89% 30.43 in 2.5 mi East 4.6 mph - N/A   Overcast
9:53 PM 39.9 °F 35.8 °F 37.9 °F 93% 30.42 in 1.8 mi ENE 5.8 mph - N/A   Overcast
10:21 PM 39.2 °F 35.9 °F 37.4 °F 93% 30.41 in 0.8 mi East 4.6 mph - N/A   Overcast
10:53 PM 39.9 °F 35.8 °F 37.9 °F 93% 30.42 in 0.8 mi East 5.8 mph - N/A   Mist
11:07 PM 39.2 °F 35.0 °F 37.4 °F 93% 30.41 in 1.0 mi ENE 5.8 mph - N/A   Overcast
11:53 PM 39.9 °F 35.8 °F 37.9 °F 93% 30.41 in 0.8 mi East 5.8 mph - N/A   Overcast